Location: Gebenbach
(49.5378°N, 11.8735°E)
Time: 04:00:04
(UTC+00:00)

Cosmos 1354 Rocket - Pass Details

Date: 29 October 2020
Orbit: 764 x 783 km, 74.0° (Epoch: 25 November)

Event Time Altitude Azimuth Distance (km) Brightness Sun altitude
Rises 17:27:36 0° 337° (NNW) 3,249 7.5 -15.5°
Reaches altitude 10° 17:30:00 10° 340° (NNW) 2,320 6.7 -15.9°
Maximum altitude 17:35:16 69° 64° (ENE) 825 3.9 -16.7°
Drops below altitude 10° 17:40:31 10° 148° (SSE) 2,316 6.2 -17.6°
Enters shadow 17:41:02 - 149° (SSE) 2,516 6.4 -17.7°
